Location: Recife
(8.0585°S, 34.8848°W)
Time: 12:10:19
(UTC-03:00)

Explorer 11/Cluster Stage 4 - Visible Passes

Search period start: 14 April 2026 00:00
Search period end: 24 April 2026 00:00
Orbit: 463 x 1174 km, 28.8° (Epoch: 13 April)

Date Brightness Start Highest point End Pass type
(mag) Time Alt. Az. Time Alt. Az. Time Alt. Az.
14 Apr 8.6 03:48:52 10° S 03:49:58 11° SSE 03:51:07 10° SE visible
14 Apr 8.0 18:20:22 10° NNW 18:24:37 20° NNE 18:26:10 18° NE visible
14 Apr 9.4 20:07:12 10° WNW 20:07:24 11° WNW 20:07:24 11° WNW visible
15 Apr 8.1 17:55:15 10° NNW 18:00:00 22° NNE 18:03:23 13° ENE visible
15 Apr 8.5 19:42:19 10° WNW 19:44:37 24° WNW 19:44:37 24° WNW visible
16 Apr 7.0 04:44:24 10° SW 04:48:31 44° SSE 04:53:30 10° ENE visible
16 Apr 8.2 17:30:08 10° NNW 17:35:20 24° NNE 17:39:49 10° E visible
16 Apr 7.2 19:17:23 10° WNW 19:21:50 50° WNW 19:21:50 50° WNW visible
17 Apr 6.8 04:21:14 18° SW 04:23:59 44° SSE 04:28:39 10° ENE visible
17 Apr 6.4 18:52:25 10° WNW 18:58:38 81° SSW 18:59:03 75° SSE visible
18 Apr 6.6 03:58:27 36° S 03:59:29 43° SSE 04:03:52 10° ENE visible
18 Apr 6.7 18:27:25 10° WNW 18:33:58 80° SSW 18:36:14 37° SE visible
19 Apr 6.9 03:35:41 39° ESE 03:35:41 39° ESE 03:39:08 10° ENE visible
19 Apr 6.9 18:02:24 10° WNW 18:09:15 79° SSW 18:13:25 19° SE visible
19 Apr 9.0 19:52:46 10° WSW 19:54:38 16° WSW 19:54:38 16° WSW visible
20 Apr 8.3 03:12:54 20° E 03:12:54 20° E 03:14:27 10° ENE visible
20 Apr 7.3 04:54:24 10° W 04:57:51 26° NNW 05:01:48 10° NNE visible
20 Apr 7.1 17:37:23 10° WNW 17:44:30 78° SSW 17:50:22 10° ESE visible
20 Apr 8.5 19:27:47 10° WSW 19:31:45 21° SW 19:31:45 21° SW visible
21 Apr 7.3 04:31:21 17° WNW 04:33:20 24° NNW 04:36:56 10° NNE visible
21 Apr 8.3 19:02:45 10° WSW 19:07:43 23° SSW 19:08:50 22° S visible
22 Apr 7.2 04:08:32 22° NW 04:08:51 22° NNW 04:12:07 10° NNE visible
22 Apr 8.4 18:37:43 10° WSW 18:43:01 24° SSW 18:45:52 17° SSE visible
23 Apr 7.8 03:45:42 17° N 03:45:42 17° N 03:47:21 10° NNE visible
23 Apr 8.6 18:12:41 10° WSW 18:18:17 25° SSW 18:22:51 11° SSE visible
